Theta_e
300 298 298 299 299 300 299 298 297 297 296 296 295 294 293 293 294 294 295 295 296 296 296 296 296 296 296 296 296 296 295 295 294 294 295 293 293 292 292 292 292 290
299 298 298 299 300 299 299 299 298 297 297 296 296 295 294 293 293 294 294 295 295 295 295 295 295 295 295 295 295 294 292 292 292 294 292 292 291 292 291 290 289 289
298 298 298 298 299 298 299 299 298 298 297 296 296 295 293 293 292 293 293 294 293 293 293 294 293 293 293 293 293 292 291 291 290 291 291 290 290 290 289 289 289 289
298 297 297 298 299 298 298 298 297 297 297 296 294 294 293 293 292 292 292 292 292 292 292 292 292 292 292 292 292 291 291 290 290 290 289 289 289 288 288 288 287 287
298 297 297 297 298 298 297 297 296 296 295 295 294 292 291 291 291 291 290 291 291 291 291 291 291 291 291 291 291 290 289 289 289 289 288 287 288 288 287 287 286 285
297 296 296 296 296 296 295 295 295 295 294 293 292 291 291 291 290 290 289 290 290 290 290 290 290 290 290 290 290 289 288 288 288 288 287 286 286 286 286 286 285 284
296 295 295 295 295 295 294 294 294 294 293 292 291 290 290 289 289 289 289 289 289 289 289 289 288 288 289 289 288 287 287 287 287 286 285 285 284 284 285 285 283 283
295 294 294 293 293 293 293 293 292 292 292 291 290 290 289 289 289 289 289 289 288 288 288 288 288 288 288 288 287 286 286 287 286 285 284 284 283 282 283 285 283 282
294 292 292 291 291 291 291 291 291 291 290 290 289 289 289 289 289 288 288 288 288 288 288 287 287 287 287 287 286 285 285 285 285 284 284 283 282 282 282 283 282 282
292 292 291 290 290 290 290 291 290 290 289 289 289 288 287 288 288 288 288 288 287 287 287 287 286 286 286 286 286 285 284 284 284 284 284 283 283 282 282 282 282 281
291 291 290 289 289 290 290 289 289 289 288 288 288 287 287 287 287 288 287 287 287 286 286 286 286 285 285 285 285 284 284 284 283 283 283 283 283 282 282 282 282 281
291 290 289 289 289 289 289 288 288 288 287 288 288 287 287 287 286 286 286 286 286 286 286 285 285 284 284 284 284 284 284 283 283 283 283 283 283 283 282 282 282 282
290 289 289 289 289 288 289 288 288 287 287 287 287 287 286 285 286 285 286 286 286 285 285 284 284 284 284 284 284 284 283 283 282 282 282 282 282 282 282 282 282 282
290 289 289 289 289 289 288 288 287 286 286 286 286 286 285 285 285 285 285 285 285 284 284 284 284 284 284 284 284 283 283 282 282 282 281 281 281 281 281 281 281 281
289 289 289 288 288 288 287 287 286 286 286 286 285 285 286 285 285 284 284 284 284 284 284 284 284 283 283 282 282 282 283 282 281 281 281 281 280 280 280 280 280 281
289 288 288 288 288 287 286 286 286 286 285 285 285 285 285 285 284 284 284 283 283 283 283 283 283 284 284 285 285 282 282 283 282 281 281 281 280 279 279 279 280 280
288 287 287 287 287 287 286 286 285 285 285 285 284 284 284 284 284 283 283 283 282 282 281 281 282 283 284 287 287 286 282 282 281 281 281 280 280 279 279 279 279 280
287 287 287 287 286 286 286 286 285 285 285 284 284 284 284 284 284 283 282 282 282 282 281 281 280 283 286 286 287 287 285 282 282 281 280 280 280 280 280 279 279 279
288 287 286 286 286 286 285 285 285 285 284 284 284 284 284 283 283 282 282 282 282 281 280 280 280 284 286 287 287 288 287 283 282 281 281 280 280 280 280 280 280 279
289 288 286 286 286 286 285 285 285 285 285 285 285 284 283 283 283 282 282 281 281 281 280 280 280 283 286 286 287 287 286 284 282 282 281 280 280 280 280 280 280 280
290 288 287 286 286 285 285 285 285 285 284 285 285 284 283 283 283 282 281 281 281 281 280 280 280 284 286 286 286 287 287 285 281 282 281 281 281 280 280 281 281 281
289 288 287 286 286 285 285 284 284 284 284 284 284 284 284 283 283 282 281 281 281 280 280 279 279 284 285 286 286 286 287 284 282 281 280 280 281 281 281 281 281 281
290 289 287 286 286 285 285 284 284 284 284 284 284 283 283 282 282 282 282 281 280 280 279 279 279 283 285 286 286 286 286 284 283 281 280 280 280 281 281 281 281 280
290 289 287 287 286 285 285 284 285 285 284 284 283 282 282 282 283 282 281 281 280 280 279 279 279 281 285 285 286 286 285 284 283 282 281 280 280 280 280 280 280 282
290 289 288 287 286 286 285 285 284 284 284 283 283 283 282 282 282 281 281 280 280 280 281 280 280 281 284 285 285 286 285 284 284 283 281 280 280 279 280 280 279 281
289 288 288 287 286 286 285 285 285 284 283 283 282 282 282 281 281 281 280 280 280 280 280 280 279 279 282 284 285 285 286 284 284 283 282 281 280 280 279 279 279 279
Wind_Speed
7 6 7 7 6 6 8 8 8 8 8 7 7 7 7 6 8 8 7 7 7 6 6 6 6 6 5 6 6 6 6 6 5 4 5 5 5 5 5 4 4 5
8 8 7 7 6 6 7 7 7 8 8 8 7 7 7 7 8 7 7 8 7 6 6 6 6 6 7 6 6 6 6 5 5 3 5 6 5 5 6 5 5 5
9 8 9 9 8 8 9 7 7 7 6 7 7 7 6 7 7 7 7 7 7 7 6 6 6 7 6 6 6 6 6 6 7 5 6 6 5 5 5 5 4 4
10 9 8 8 7 8 7 7 7 6 6 5 5 6 6 6 7 7 7 7 7 7 6 6 6 6 6 7 6 5 6 6 6 6 6 5 5 5 5 5 5 5
11 9 8 7 6 7 7 7 7 6 6 6 6 6 7 7 7 7 7 6 6 7 6 7 6 6 7 7 6 7 7 6 6 7 7 6 5 5 5 5 6 6
8 8 8 8 7 7 7 7 7 7 7 6 6 6 6 7 7 7 8 7 7 7 7 7 7 7 7 7 7 7 8 7 7 7 7 7 6 5 4 5 6 7
9 9 9 7 7 7 7 7 7 6 6 6 6 6 7 7 7 7 7 7 8 8 8 8 8 8 7 8 7 8 7 7 8 7 8 7 7 6 4 5 6 7
9 8 8 7 8 7 6 7 6 6 6 7 7 6 7 7 8 7 7 7 8 8 8 8 8 9 8 8 8 8 7 6 7 8 8 7 7 7 6 4 6 7
8 8 8 7 8 7 8 7 7 7 6 7 7 7 6 6 7 7 8 8 7 8 8 8 8 8 7 7 8 9 9 8 7 8 8 8 8 7 7 6 7 6
10 8 9 8 8 8 9 8 7 7 7 7 7 7 8 7 7 8 8 8 8 8 8 9 9 8 8 7 8 9 10 10 8 7 7 8 8 8 8 7 7 7
11 10 10 9 9 7 9 8 8 8 7 8 8 8 8 8 8 8 8 9 9 10 10 10 9 9 9 8 7 8 9 9 8 8 7 7 7 8 8 8 8 7
11 10 11 11 10 9 10 9 9 9 9 8 8 9 9 8 9 8 9 9 9 9 9 10 9 9 9 8 8 8 8 8 7 7 7 7 7 7 7 7 7 7
12 10 9 10 10 9 9 9 9 9 9 9 9 9 9 9 9 9 8 9 9 9 9 9 9 8 8 8 8 8 8 8 8 7 7 6 6 7 7 6 6 7
11 10 10 10 9 9 10 9 9 9 9 9 9 10 9 10 10 10 8 8 8 8 8 8 8 9 9 9 8 8 8 8 8 8 7 6 6 6 6 6 6 6
9 10 9 10 11 11 10 10 10 9 9 9 9 9 8 9 9 10 10 9 8 9 9 9 10 10 8 9 10 9 9 9 8 8 7 7 7 7 6 6 5 5
10 10 11 11 11 12 12 10 10 10 10 9 10 9 9 9 9 10 10 11 11 10 10 8 8 7 10 15 12 11 9 7 7 7 8 8 8 7 6 6 6 6
10 12 12 13 13 12 12 12 11 10 10 10 10 10 10 10 10 11 11 11 10 10 10 9 9 8 14 13 13 13 10 8 9 8 8 8 8 8 8 8 7 6
10 12 13 13 12 13 12 12 10 10 10 11 10 9 9 10 11 12 11 10 10 11 11 11 9 11 14 15 14 15 12 9 8 8 7 8 8 8 7 7 7 7
13 14 14 13 13 12 9 10 10 10 10 10 11 9 9 11 11 11 11 11 11 13 11 10 9 13 15 15 14 14 13 10 6 7 7 8 8 8 8 7 7 7
14 12 14 14 11 10 10 11 11 12 11 9 9 9 10 11 10 12 10 11 11 10 10 9 10 12 15 16 15 14 14 11 6 7 7 8 8 8 8 8 9 9
15 15 15 13 11 11 12 12 12 11 11 8 8 10 12 12 12 11 9 8 10 8 10 9 8 13 15 16 16 16 15 10 6 5 6 7 7 8 8 9 9 9
16 16 14 14 13 12 13 13 13 13 13 10 8 4 2 4 8 7 9 11 10 9 9 9 7 14 16 16 16 16 16 8 6 5 5 7 7 8 8 8 8 8
16 16 14 14 14 14 14 14 13 13 9 5 7 6 6 9 8 8 7 8 8 8 8 8 7 13 17 17 17 18 13 7 6 6 6 8 8 7 8 8 8 8
15 15 15 15 15 16 16 13 12 8 6 10 9 11 11 10 7 7 8 7 9 9 9 8 7 10 17 17 18 20 12 8 7 7 7 7 7 7 6 7 8 11
15 14 15 15 15 15 14 14 13 12 11 9 10 9 9 6 7 8 7 6 7 8 9 9 6 9 17 17 18 19 14 8 7 6 7 7 7 7 7 7 6 8
11 12 13 14 14 11 10 11 10 10 11 11 9 7 6 7 7 7 8 7 6 7 7 8 7 6 11 17 17 19 18 10 7 7 8 8 7 7 6 6 7 7
Wind_Direction
175 168 173 182 187 178 174 175 171 172 179 173 168 161 163 151 146 161 152 153 159 152 146 145 140 132 130 135 139 131 133 127 123 120 115 110 111 113 113 105 97 106
181 172 177 180 184 175 180 178 172 175 176 169 168 149 141 136 156 157 153 152 147 143 140 140 141 139 143 142 136 129 123 123 113 111 119 116 116 111 107 104 101 107
182 178 182 183 182 172 170 170 169 174 172 168 149 136 130 147 152 155 151 148 145 142 145 145 142 144 144 136 137 132 134 129 128 128 123 124 125 119 115 110 103 99
186 182 183 182 181 167 164 161 164 168 156 150 145 130 130 143 149 146 144 147 144 146 146 146 146 145 143 141 140 129 127 132 134 134 126 117 117 121 120 114 110 102
185 180 179 177 175 164 161 165 166 163 156 143 116 127 136 142 146 146 147 150 145 146 149 150 149 146 144 146 142 132 137 132 140 141 134 129 126 123 124 127 124 114
175 171 171 171 164 160 165 170 166 161 146 136 146 138 139 146 151 153 154 152 153 149 150 151 152 147 152 150 145 144 147 144 149 146 134 134 131 126 133 133 128 118
175 171 173 168 157 166 169 167 160 156 152 147 136 147 142 151 153 155 157 156 154 156 155 155 152 154 159 155 151 149 143 142 147 146 142 135 132 129 129 130 126 120
169 164 166 159 163 164 166 159 154 154 150 139 153 145 152 155 153 153 156 156 156 154 153 151 155 160 159 159 152 148 138 145 151 149 143 135 135 138 138 131 130 127
168 164 158 161 167 166 169 162 157 154 149 153 150 147 149 158 153 153 159 155 154 156 153 154 158 158 160 158 153 150 145 151 156 154 147 145 146 149 147 141 138 138
180 170 163 166 171 174 171 164 153 151 150 156 151 148 157 159 156 158 159 162 160 160 161 159 159 159 161 160 153 151 152 155 155 152 150 154 155 153 150 152 153 150
180 177 171 172 172 171 170 157 153 149 156 159 154 156 162 157 157 164 166 168 170 168 164 164 165 164 163 156 155 153 156 157 159 157 154 154 153 155 156 158 162 159
183 179 177 174 171 172 168 162 159 159 160 164 163 159 162 166 164 169 174 173 170 169 168 166 164 163 163 157 153 152 157 160 156 153 152 153 157 155 159 165 163 160
185 177 173 172 175 170 166 166 168 162 163 165 166 162 165 167 171 168 176 174 170 169 169 163 157 157 158 159 160 161 157 153 154 154 154 157 157 156 159 160 160 161
183 173 171 172 169 169 171 170 166 165 167 165 164 168 172 174 171 172 170 172 168 162 156 152 157 165 168 162 157 158 156 158 163 165 161 158 148 142 152 162 164 166
166 166 168 169 174 176 173 171 168 164 164 165 168 173 175 174 169 168 166 168 165 166 164 170 176 180 173 166 162 168 167 166 168 167 163 158 154 155 160 162 167 171
166 165 173 171 176 179 175 168 164 163 167 168 173 175 172 171 171 173 172 174 171 174 176 173 177 176 176 173 176 172 168 165 162 167 168 167 164 161 162 168 174 176
167 173 177 182 183 177 173 169 165 165 168 170 174 177 176 174 173 178 181 182 179 168 163 175 183 183 177 175 172 168 166 169 170 170 169 166 169 173 176 175 180 182
169 173 182 187 182 181 175 170 163 164 170 173 175 176 176 173 180 185 181 178 176 175 180 182 184 183 175 175 172 172 172 170 172 168 168 174 179 184 184 177 177 183
179 182 185 184 186 180 174 169 171 171 174 175 180 174 158 174 184 178 184 184 181 181 183 182 189 180 175 175 174 174 170 167 170 173 176 182 184 187 184 179 180 190
185 186 190 190 185 180 177 178 178 182 176 173 167 172 177 181 185 187 185 183 180 176 177 183 186 179 178 178 179 176 175 172 171 176 182 186 187 188 189 191 192 195
190 189 190 187 182 182 181 184 184 183 178 178 166 172 180 182 181 183 185 181 179 182 185 186 187 179 180 178 180 181 179 173 166 169 182 189 195 197 200 201 204 202
191 192 188 185 182 181 185 187 185 182 180 178 170 153 128 146 187 184 184 189 189 186 182 184 178 177 181 178 179 182 181 176 182 191 196 200 205 203 202 207 206 205
192 190 187 186 186 183 187 186 182 183 170 141 136 151 156 181 187 190 187 185 184 183 185 186 177 179 179 179 181 181 178 179 181 193 206 211 216 206 204 204 206 203
189 188 189 187 185 188 187 188 177 153 136 172 167 171 178 182 163 158 179 181 183 186 186 183 182 179 180 180 182 183 177 180 186 192 204 210 216 209 205 206 208 203
189 189 188 187 189 189 183 177 178 181 172 173 183 175 178 159 167 166 177 182 188 188 181 182 178 178 183 181 183 185 182 186 187 195 201 210 207 209 208 213 214 208
191 190 186 186 189 181 176 176 167 162 169 173 174 162 126 153 170 176 179 184 178 178 183 184 179 176 185 186 187 190 189 186 195 200 208 203 201 203 212 221 214 213